Weather History for K5H4 - September, 2013

Change the Weather History Date:

Wednesday, September 25, 2013

  Actual Average (KRUG) Record (KRUG)
Temperature  
Mean Temperature 60 °F -  
Max Temperature 77 °F 65 °F 91 °F (2014)
Min Temperature 44 °F 39 °F 24 °F (1985)
Degree Days  
Heating Degree Days 4    
Growing Degree Days 10 (Base 50)    
Moisture  
Dew Point 51 °F    
Average Humidity 69    
Maximum Humidity 100    
Minimum Humidity 39    
Precipitation  
Precipitation 0.00 in - - ()
Sea Level Pressure  
Sea Level Pressure 29.70 in    
Wind  
Wind Speed 10 mph (SE)    
Max Wind Speed 22 mph    
Max Gust Speed 33 mph    
Visibility 10 miles    
Events      
Averages and records for this station are not official NWS values.
T = Trace of Precipitation, MM = Missing Value Source: NWS Daily Summary

Daily Weather History Graph

Daily Weather History Graph

Search for Another Location

Airport or City:

Trip Planner

Search our weather history database for the weather conditions in past years. The results will help you decide how hot, cold, wet, or windy it might be!

Date:

Astronomy

Sep. 25, 2013 Rise Set
Actual Time 7:30 AM CDT 7:30 PM CDT
Civil Twilight 7:00 AM CDT 8:01 PM CDT
Nautical Twilight 6:23 AM CDT 8:37 PM CDT
Astronomical Twilight 5:46 AM CDT 9:14 PM CDT
Moon 11:15 PM CDT (9/25) 2:00 PM CDT (9/25)
Length of Visible Light 13h 01m
Length of Day
11h 59m
Waning Gibbous, 64% of the Moon is Illuminated
Sep 25
Waning Gibbous
Sep 26
Last Quarter
Oct 4
New
Oct 11
First Quarter
Oct 18
Full

Hourly Weather History & Observations

Time (CDT) Temp. Windchill Dew Point Humidity Pressure Visibility Wind Dir Wind Speed Gust Speed Precip Events Conditions
12:15 AM 48.2 °F - 42.8 °F 82% 29.85 in 10.0 mi ESE 8.1 mph - N/A   Clear
12:35 AM 48.2 °F - 42.8 °F 82% 29.85 in 10.0 mi SE 6.9 mph - N/A   Clear
12:55 AM 46.4 °F 43.5 °F 44.6 °F 93% 29.84 in 10.0 mi SE 5.8 mph - N/A   Clear
1:15 AM 46.4 °F 44.3 °F 44.6 °F 93% 29.85 in 10.0 mi SE 4.6 mph - N/A   Clear
1:35 AM 44.6 °F 40.2 °F 44.6 °F 100% 29.84 in 10.0 mi ESE 8.1 mph - N/A   Clear
1:55 AM 46.4 °F 41.9 °F 44.6 °F 93% 29.83 in 10.0 mi ESE 9.2 mph - N/A   Clear
2:35 AM 46.4 °F 43.5 °F 44.6 °F 93% 29.82 in 10.0 mi SSE 5.8 mph - N/A   Clear
2:55 AM 53.6 °F - 44.6 °F 72% 29.81 in 10.0 mi SSE 9.2 mph - N/A   Clear
3:15 AM 53.6 °F - 44.6 °F 72% 29.81 in 10.0 mi SSE 6.9 mph - N/A   Clear
3:35 AM 48.2 °F - 44.6 °F 87% 29.80 in 10.0 mi SE 3.5 mph - N/A   Clear
3:55 AM 50.0 °F - 44.6 °F 82% 29.81 in 10.0 mi SSE 4.6 mph - N/A   Clear
4:35 AM 46.4 °F 42.9 °F 44.6 °F 93% 29.79 in 10.0 mi ESE 6.9 mph - N/A   Clear
4:55 AM 46.4 °F 42.4 °F 44.6 °F 93% 29.78 in 10.0 mi SE 8.1 mph - N/A   Clear
5:15 AM 50.0 °F - 46.4 °F 87% 29.77 in 10.0 mi SE 8.1 mph - N/A   Clear
5:35 AM 51.8 °F - 48.2 °F 88% 29.77 in 10.0 mi SSE 4.6 mph - N/A   Clear
5:55 AM 50.0 °F - 46.4 °F 87% 29.77 in 10.0 mi SSE 5.8 mph - N/A   Clear
6:15 AM 51.8 °F - 48.2 °F 88% 29.76 in 10.0 mi SE 4.6 mph - N/A   Clear
6:35 AM 51.8 °F - 48.2 °F 88% 29.75 in 10.0 mi SE 5.8 mph - N/A   Clear
6:55 AM 50.0 °F - 48.2 °F 94% 29.75 in 10.0 mi ESE 10.4 mph - N/A   Clear
7:15 AM 50.0 °F - 48.2 °F 94% 29.75 in 10.0 mi SE 6.9 mph - N/A   Clear
7:35 AM 48.2 °F - 48.2 °F 100% 29.76 in 10.0 mi East 4.6 mph - N/A   Clear
7:55 AM 48.2 °F - 48.2 °F 100% 29.76 in 10.0 mi East 6.9 mph - N/A   Clear
8:15 AM 50.0 °F - 50.0 °F 100% 29.75 in 10.0 mi ESE 6.9 mph - N/A   Clear
8:35 AM 50.0 °F - 50.0 °F 100% 29.75 in 10.0 mi ESE 8.1 mph - N/A   Clear
8:55 AM 53.6 °F - 51.8 °F 94% 29.74 in 10.0 mi SE 6.9 mph - N/A   Clear
9:15 AM 57.2 °F - 53.6 °F 88% 29.73 in 10.0 mi SSE 9.2 mph - N/A   Clear
9:35 AM 59.0 °F - 55.4 °F 88% 29.73 in 10.0 mi SSE 12.7 mph 16.1 mph N/A   Clear
9:55 AM 64.4 °F - 55.4 °F 73% 29.73 in 10.0 mi SSE 12.7 mph 18.4 mph N/A   Clear
10:15 AM 68.0 °F - 53.6 °F 60% 29.73 in 10.0 mi South 16.1 mph 26.5 mph N/A   Clear
10:35 AM 68.0 °F - 53.6 °F 60% 29.72 in 10.0 mi SSE 17.3 mph 27.6 mph N/A   Clear
10:55 AM 68.0 °F - 53.6 °F 60% 29.71 in 10.0 mi SSE 21.9 mph 29.9 mph N/A   Clear
11:15 AM 69.8 °F - 53.6 °F 56% 29.71 in 10.0 mi South 21.9 mph 28.8 mph N/A   Clear
11:35 AM 69.8 °F - 53.6 °F 56% 29.71 in 10.0 mi SSE 19.6 mph 32.2 mph N/A   Clear
11:55 AM 69.8 °F - 53.6 °F 56% 29.70 in 10.0 mi South 15.0 mph 33.4 mph N/A   Clear
12:15 PM 71.6 °F - 53.6 °F 53% 29.69 in 10.0 mi South 18.4 mph 27.6 mph N/A   Clear
12:35 PM 73.4 °F - 53.6 °F 50% 29.69 in 10.0 mi South 13.8 mph 31.1 mph N/A   Clear
1:15 PM 73.4 °F - 51.8 °F 47% 29.66 in 10.0 mi SSE 20.7 mph 29.9 mph N/A   Clear
1:55 PM 75.2 °F - 50.0 °F 41% 29.65 in 10.0 mi SSE 17.3 mph 27.6 mph N/A   Clear
2:15 PM 77.0 °F - 50.0 °F 39% 29.63 in 10.0 mi South 21.9 mph 28.8 mph N/A   Clear
2:35 PM 75.2 °F - 50.0 °F 41% 29.63 in 10.0 mi South 20.7 mph 27.6 mph N/A   Clear
2:55 PM 75.2 °F - 50.0 °F 41% 29.62 in 10.0 mi SSE 17.3 mph 26.5 mph N/A   Clear
3:15 PM 77.0 °F - 50.0 °F 39% 29.62 in 10.0 mi SSE 19.6 mph 29.9 mph N/A   Clear
3:35 PM 75.2 °F - 50.0 °F 41% 29.62 in 10.0 mi SSE 19.6 mph 28.8 mph N/A   Clear
3:55 PM 75.2 °F - 51.8 °F 44% 29.61 in 10.0 mi SSE 20.7 mph 27.6 mph N/A   Clear
4:15 PM 77.0 °F - 50.0 °F 39% 29.61 in 10.0 mi SSE 16.1 mph 26.5 mph N/A   Clear
4:35 PM 75.2 °F - 51.8 °F 44% 29.61 in 10.0 mi SSE 18.4 mph 28.8 mph N/A   Clear
4:55 PM 75.2 °F - 50.0 °F 41% 29.61 in 10.0 mi SSE 17.3 mph 28.8 mph N/A   Clear
5:15 PM 75.2 °F - 51.8 °F 44% 29.61 in 10.0 mi SSE 13.8 mph 23.0 mph N/A   Clear
5:35 PM 73.4 °F - 53.6 °F 50% 29.61 in 10.0 mi SSE 16.1 mph 23.0 mph N/A   Clear
5:55 PM 73.4 °F - 51.8 °F 47% 29.60 in 10.0 mi SSE 11.5 mph 24.2 mph N/A   Clear
6:15 PM 73.4 °F - 51.8 °F 47% 29.61 in 10.0 mi SSE 16.1 mph 25.3 mph N/A   Clear
6:35 PM 71.6 °F - 53.6 °F 53% 29.62 in 10.0 mi SSE 9.2 mph 17.3 mph N/A   Clear
6:55 PM 71.6 °F - 53.6 °F 53% 29.62 in 10.0 mi SSE 9.2 mph - N/A   Clear
7:15 PM 69.8 °F - 53.6 °F 56% 29.62 in 10.0 mi SE 6.9 mph - N/A   Clear
7:35 PM 68.0 °F - 53.6 °F 60% 29.62 in 10.0 mi SE 5.8 mph - N/A   Clear
7:55 PM 66.2 °F - 53.6 °F 64% 29.63 in 10.0 mi ESE 8.1 mph - N/A   Clear
8:15 PM 66.2 °F - 55.4 °F 68% 29.63 in 10.0 mi SE 6.9 mph - N/A   Clear
8:35 PM 64.4 °F - 55.4 °F 73% 29.64 in 10.0 mi SE 8.1 mph - N/A   Clear
8:55 PM 64.4 °F - 55.4 °F 73% 29.64 in 10.0 mi SE 8.1 mph - N/A   Clear
9:15 PM 64.4 °F - 55.4 °F 73% 29.64 in 10.0 mi ESE 8.1 mph - N/A   Clear
9:35 PM 64.4 °F - 55.4 °F 73% 29.64 in 10.0 mi SE 11.5 mph - N/A   Clear
9:55 PM 66.2 °F - 55.4 °F 68% 29.64 in 10.0 mi SE 12.7 mph - N/A   Clear
10:15 PM 66.2 °F - 55.4 °F 68% 29.65 in 10.0 mi SE 11.5 mph 20.7 mph N/A   Clear
10:35 PM 64.4 °F - 55.4 °F 73% 29.65 in 10.0 mi SE 12.7 mph - N/A   Clear
10:55 PM 64.4 °F - 55.4 °F 73% 29.65 in 10.0 mi SE 11.5 mph 19.6 mph N/A   Clear
11:15 PM 64.4 °F - 53.6 °F 68% 29.64 in 10.0 mi SE 13.8 mph 17.3 mph N/A   Clear
11:35 PM 64.4 °F - 51.8 °F 64% 29.64 in 10.0 mi SE 13.8 mph 21.9 mph N/A   Clear
11:55 PM 64.4 °F - 51.8 °F 64% 29.63 in 10.0 mi SE 13.8 mph 19.6 mph N/A   Clear